period_start,C,m1,H,J0,J1,J2,J3,J4,J5,JA,JB,JC,JD,JJ,JK,JN,#
2016-07-14 00:01:47,0.00,0.01,0.00,19.59,25.22,28.66,14.76,44.55,1016.13,2049.01,3611.01,3158.00,3587.98,600.08,602.88,3.17,0000 0000 0000 0000 000000
2016-07-14 00:06:48,0.00,0.01,0.00,19.58,25.24,28.65,14.74,44.44,1016.14,2049.00,3611.00,3157.99,3587.77,599.82,602.59,3.22,0000 0000 0000 0000 000000
2016-07-14 00:11:49,0.00,0.01,0.00,19.54,25.26,28.65,14.79,44.55,1016.15,2049.00,3610.99,3157.97,3587.26,599.98,602.75,3.27,0000 0000 0000 0000 000000
2016-07-14 00:16:51,0.01,0.01,0.00,19.53,25.27,28.68,14.76,44.63,1016.16,2049.00,3610.84,3157.86,3587.03,600.22,603.00,3.32,0000 0000 0000 0000 000000
2016-07-14 00:21:52,0.01,0.01,0.00,19.55,25.29,28.71,14.78,44.59,1016.16,2048.98,3610.52,3157.44,3587.00,600.29,603.06,3.37,0000 0000 0000 0000 000000
2016-07-14 00:26:53,0.01,0.01,0.00,19.58,25.30,28.72,14.76,44.65,1016.21,2048.95,3610.12,3157.09,3587.00,599.96,602.78,3.42,0000 0000 0000 0000 000000
2016-07-14 00:31:54,-0.00,0.01,0.00,19.56,25.32,28.73,14.75,44.60,1016.18,2048.92,3610.04,3157.02,3586.98,600.23,602.95,3.47,0000 0000 0000 0000 000000
2016-07-14 00:36:56,-0.01,0.01,0.00,19.54,25.32,28.75,14.73,44.68,1016.26,2048.84,3610.00,3157.01,3586.93,600.06,602.94,3.52,0000 0000 0000 0000 000000
2016-07-14 00:41:57,0.01,0.01,0.00,19.54,25.34,28.74,14.75,44.72,1016.23,2048.88,3610.01,3157.01,3586.87,599.76,602.61,3.57,0000 0000 0000 0000 000000
2016-07-14 00:46:58,-0.03,0.01,0.00,19.53,25.35,28.77,14.76,44.70,1016.19,2048.54,3610.00,3157.00,3586.44,599.90,602.79,3.62,0000 0000 0000 0000 000000
2016-07-14 00:51:59,-0.01,0.01,0.00,19.60,25.35,28.88,14.71,44.66,1016.20,2048.23,3610.00,3157.00,3586.11,599.80,602.55,3.67,0000 0000 0000 0000 000000
2016-07-14 00:57:01,0.00,0.01,0.00,19.56,25.37,28.91,14.71,44.61,1016.17,2048.18,3610.00,3157.00,3586.06,599.86,602.62,3.72,0000 0000 0000 0000 000000
2016-07-14 01:02:02,-0.01,0.01,0.00,19.53,25.37,28.86,14.66,44.63,1016.16,2048.14,3609.95,3156.98,3586.01,599.59,602.41,3.77,0000 0000 0000 0000 000000
2016-07-14 01:07:03,-0.01,0.01,0.00,19.55,25.38,28.91,14.78,44.58,1016.15,2048.06,3609.86,3156.97,3586.00,599.98,602.83,3.82,0000 0000 0000 0000 000000
2016-07-14 01:12:05,0.01,0.01,0.00,19.57,25.39,28.92,14.73,44.67,1016.16,2048.03,3609.51,3156.79,3585.99,599.98,602.74,3.87,0000 0000 0000 0000 000000
2016-07-14 01:17:06,0.02,0.01,0.00,19.56,25.40,28.91,14.73,44.67,1016.16,2048.02,3609.25,3156.38,3585.98,600.02,602.84,3.92,0000 0000 0000 0000 000000
2016-07-14 01:22:07,0.00,0.01,0.00,19.56,25.40,28.92,14.80,44.87,1016.14,2048.00,3609.02,3156.04,3585.75,600.03,602.80,3.97,0000 0000 0000 0000 000000
2016-07-14 01:27:09,0.01,0.01,0.00,19.54,25.42,28.94,14.67,44.63,1016.14,2048.00,3609.00,3156.01,3585.29,599.78,602.53,4.02,0000 0000 0000 0000 000000
2016-07-14 01:32:10,0.00,0.01,0.00,19.56,25.42,28.91,14.81,44.70,1016.14,2048.00,3608.98,3156.00,3585.04,599.93,602.54,4.07,0000 0000 0000 0000 000000
2016-07-14 01:37:11,0.00,0.01,0.00,19.55,25.42,28.96,14.73,44.69,1016.13,2048.00,3608.99,3156.00,3585.00,599.71,602.50,4.12,0000 0000 0000 0000 000000
2016-07-14 01:42:12,0.00,0.01,0.00,19.55,25.44,28.90,14.76,44.73,1016.13,2047.98,3608.97,3155.99,3585.00,599.73,602.47,4.17,0000 0000 0000 0000 000000
2016-07-14 01:47:14,0.00,0.01,0.00,19.53,25.45,28.94,14.78,44.65,1016.13,2047.98,3608.91,3155.98,3585.00,600.27,603.09,4.22,0000 0000 0000 0000 000000
2016-07-14 01:52:15,0.00,0.01,0.00,19.51,25.45,29.01,14.77,44.75,1016.13,2047.97,3608.76,3155.97,3584.98,600.18,602.90,4.27,0000 0000 0000 0000 000000
2016-07-14 01:57:17,0.01,0.01,0.00,19.56,25.47,29.00,14.83,44.83,1016.13,2047.98,3608.31,3155.94,3584.97,600.25,603.01,4.32,0000 0000 0000 0000 000000
2016-07-14 02:02:18,-0.00,0.01,0.00,19.57,25.47,28.99,14.76,44.85,1016.13,2047.97,3608.44,3155.91,3584.96,599.91,602.58,4.37,0000 0000 0000 0000 000000
2016-07-14 02:07:19,0.01,0.01,0.00,19.59,25.49,29.02,14.70,44.71,1016.13,2047.92,3608.06,3155.50,3584.73,599.86,602.50,4.42,0000 0000 0000 0000 000000
2016-07-14 02:12:20,0.00,0.01,0.00,19.58,25.50,28.97,14.72,44.81,1016.13,2047.85,3608.01,3155.12,3584.28,600.01,602.71,4.47,0000 0000 0000 0000 000000
2016-07-14 02:17:22,-0.03,0.01,0.00,19.56,25.50,29.00,14.78,44.86,1016.13,2047.56,3608.00,3155.03,3584.04,599.98,602.67,4.52,0000 0000 0000 0000 000000
2016-07-14 02:22:23,0.01,0.01,0.00,19.54,25.51,29.07,14.79,44.83,1016.13,2047.59,3608.00,3155.01,3584.02,600.12,602.91,4.57,0000 0000 0000 0000 000000
2016-07-14 02:27:24,-0.01,0.01,0.00,19.59,25.52,29.05,14.75,44.81,1016.15,2047.37,3607.97,3155.00,3584.00,599.98,602.68,4.62,0000 0000 0000 0000 000000
2016-07-14 02:32:25,0.00,0.01,0.00,19.61,25.52,29.07,14.72,44.67,1016.16,2047.29,3607.93,3155.00,3584.00,600.05,602.75,4.67,0000 0000 0000 0000 000000
2016-07-14 02:37:27,-0.01,0.01,0.00,19.58,25.54,28.99,14.74,44.73,1016.16,2047.29,3607.95,3155.00,3584.00,600.13,602.86,4.72,0000 0000 0000 0000 000000
2016-07-14 02:42:28,-0.00,0.01,0.00,19.59,25.55,29.05,14.76,44.83,1016.17,2047.19,3607.63,3155.00,3584.00,600.07,602.75,4.77,0000 0000 0000 0000 000000
2016-07-14 02:47:29,0.01,0.01,0.00,19.57,25.55,29.06,14.68,44.70,1016.22,2047.20,3607.40,3154.99,3583.99,599.89,602.69,4.82,0000 0000 0000 0000 000000
2016-07-14 02:52:30,-0.01,0.01,0.00,19.55,25.55,29.12,14.81,44.80,1016.21,2047.12,3607.07,3154.98,3583.95,600.26,603.08,4.87,0000 0000 0000 0000 000000
2016-07-14 02:57:31,0.00,0.01,0.00,19.61,25.57,29.11,14.75,44.68,1016.19,2047.05,3607.01,3154.95,3583.77,600.06,602.75,4.92,0000 0000 0000 0000 000000
2016-07-14 03:02:32,0.00,0.01,0.00,19.67,25.57,29.15,14.75,44.72,1016.16,2047.03,3607.00,3154.92,3583.43,599.93,602.48,4.97,0000 0000 0000 0000 000000
2016-07-14 03:07:34,0.01,0.01,0.00,19.65,25.57,29.10,14.78,44.65,1016.23,2047.03,3606.99,3154.78,3583.14,600.03,602.62,5.02,0000 0000 0000 0000 000000
2016-07-14 03:12:35,0.01,0.01,0.00,19.66,25.57,29.06,14.73,44.72,1016.27,2047.05,3606.93,3154.66,3583.04,600.04,602.62,5.07,0000 0000 0000 0000 000000
2016-07-14 03:17:36,0.01,0.01,0.00,19.67,25.59,29.17,14.74,44.71,1016.28,2047.04,3606.87,3154.31,3583.00,599.91,602.56,5.12,0000 0000 0000 0000 000000
2016-07-14 03:22:38,0.01,0.01,0.00,19.68,25.60,29.10,14.79,44.73,1016.37,2047.04,3606.61,3154.28,3583.01,600.21,602.80,5.17,0000 0000 0000 0000 000000
2016-07-14 03:27:39,0.00,0.01,0.00,19.63,25.60,29.12,14.70,44.77,1016.48,2047.04,3606.27,3154.07,3583.00,599.88,602.73,5.23,0000 0000 0000 0000 000000
2016-07-14 03:32:40,-0.00,0.01,0.00,19.61,25.60,29.15,14.75,44.77,1016.46,2047.02,3606.02,3154.01,3583.00,599.57,602.49,5.28,0000 0000 0000 0000 000000
2016-07-14 03:37:41,0.00,0.01,0.00,19.63,25.60,29.15,14.72,44.81,1016.58,2047.04,3606.02,3154.01,3583.00,599.87,602.74,5.33,0000 0000 0000 0000 000000
2016-07-14 03:42:43,0.00,0.01,0.00,19.67,25.61,29.16,14.78,44.76,1016.58,2047.02,3606.00,3154.00,3582.99,600.18,602.94,5.38,0000 0000 0000 0000 000000
2016-07-14 03:47:44,0.00,0.01,0.00,19.69,25.62,29.13,14.80,44.78,1016.55,2047.01,3605.99,3154.00,3582.98,599.65,602.39,5.43,0000 0000 0000 0000 000000
2016-07-14 03:52:45,0.00,0.01,0.00,19.72,25.62,29.22,14.74,44.69,1016.60,2047.00,3605.98,3154.00,3582.96,600.13,602.78,5.48,0000 0000 0000 0000 000000
2016-07-14 03:57:47,0.04,0.02,0.00,19.73,25.62,29.07,14.76,44.83,1016.61,2047.01,3605.36,3153.57,3582.32,600.08,602.79,5.53,0000 0000 0000 0000 000000
2016-07-14 04:02:48,-0.00,0.02,0.00,19.75,25.62,29.07,14.70,44.73,1016.62,2047.02,3605.04,3153.46,3582.00,599.84,602.51,5.58,0000 0000 0000 0000 000000
2016-07-14 04:07:49,0.01,0.02,0.00,19.69,25.64,29.14,14.79,44.71,1016.62,2047.01,3605.03,3153.39,3582.00,600.23,602.93,5.63,0000 0000 0000 0000 000000
2016-07-14 04:12:50,0.00,0.02,0.00,19.69,25.65,29.11,14.73,44.79,1016.61,2047.00,3605.01,3153.08,3581.99,599.76,602.55,5.68,0000 0000 0000 0000 000000
2016-07-14 04:17:52,0.00,0.02,0.00,19.70,25.65,29.15,14.67,44.78,1016.59,2047.01,3605.00,3153.05,3581.99,599.81,602.48,5.73,0000 0000 0000 0000 000000
2016-07-14 04:22:53,0.00,0.02,0.00,19.72,25.66,29.20,14.72,44.73,1016.60,2047.00,3605.00,3153.03,3581.97,599.81,602.49,5.78,0000 0000 0000 0000 000000
2016-07-14 04:27:54,0.00,0.02,0.00,19.74,25.67,29.16,14.78,44.70,1016.57,2047.00,3605.00,3153.02,3581.90,599.70,602.22,5.83,0000 0000 0000 0000 000000
2016-07-14 04:32:56,0.01,0.02,0.00,19.72,25.67,29.16,14.74,44.85,1016.55,2047.00,3604.99,3153.00,3581.46,599.99,602.71,5.88,0000 0000 0000 0000 000000
2016-07-14 04:37:57,0.00,0.02,0.00,19.78,25.68,29.19,14.69,44.70,1016.55,2047.00,3604.98,3153.00,3581.17,599.98,602.54,5.93,0000 0000 0000 0000 000000
2016-07-14 04:42:58,0.00,0.02,0.00,19.78,25.70,29.17,14.82,44.70,1016.57,2047.00,3604.94,3153.00,3581.04,600.05,602.64,5.98,0000 0000 0000 0000 000000
2016-07-14 04:47:59,0.00,0.02,0.00,19.77,25.70,29.20,14.78,44.74,1016.60,2047.00,3604.72,3152.98,3581.02,600.13,602.73,6.03,0000 0000 0000 0000 000000
2016-07-14 04:53:00,0.00,0.02,0.00,19.76,25.72,29.17,14.72,44.83,1016.59,2047.00,3604.33,3152.98,3581.00,599.89,602.49,6.08,0000 0000 0000 0000 000000
2016-07-14 04:58:02,0.00,0.02,0.00,19.76,25.72,29.20,14.75,44.79,1016.62,2047.00,3604.26,3152.97,3581.00,599.96,602.68,6.13,0000 0000 0000 0000 000000
2016-07-14 05:03:03,0.00,0.02,0.00,19.82,25.74,29.18,14.73,44.73,1016.62,2047.00,3604.20,3152.94,3580.99,599.89,602.32,6.18,0000 0000 0000 0000 000000
2016-07-14 05:08:05,0.01,0.02,0.00,19.84,25.75,29.18,14.76,44.86,1016.60,2047.00,3604.02,3152.67,3580.96,599.96,602.40,6.23,0000 0000 0000 0000 000000
2016-07-14 05:13:06,0.00,0.02,0.00,19.82,25.75,29.18,14.77,44.85,1016.60,2047.00,3604.01,3152.55,3580.91,600.04,602.48,6.28,0000 0000 0000 0000 000000
2016-07-14 05:18:07,0.01,0.02,0.00,19.81,25.77,29.19,14.75,44.78,1016.53,2047.00,3604.00,3152.16,3580.48,600.15,602.67,6.33,0000 0000 0000 0000 000000
2016-07-14 05:23:08,0.00,0.02,0.00,19.87,25.77,29.17,14.74,44.76,1016.44,2047.00,3604.00,3152.04,3580.06,599.80,602.00,6.38,0000 0000 0000 0000 000000
2016-07-14 05:28:10,0.00,0.02,0.00,19.88,25.80,29.20,14.71,44.83,1016.45,2046.99,3603.76,3152.00,3580.00,599.85,602.09,6.43,0000 0000 0000 0000 000000
2016-07-14 05:33:11,0.01,0.02,0.00,19.86,25.80,29.22,14.82,44.85,1016.55,2046.99,3603.13,3151.99,3579.99,600.14,602.54,6.48,0000 0000 0000 0000 000000
2016-07-14 05:38:12,0.00,0.02,0.00,19.88,25.81,29.26,14.69,44.70,1016.59,2046.96,3603.00,3151.94,3579.83,599.96,602.16,6.53,0000 0000 0000 0000 000000
2016-07-14 05:43:13,0.01,0.02,0.00,19.87,25.82,29.18,14.71,44.76,1016.62,2046.96,3603.00,3151.87,3579.47,600.00,602.41,6.58,0000 0000 0000 0000 000000
2016-07-14 05:48:14,0.01,0.02,0.00,19.89,25.84,29.19,14.67,44.83,1016.61,2046.95,3602.93,3151.42,3579.04,599.80,602.08,6.63,0000 0000 0000 0000 000000
2016-07-14 05:53:15,-0.01,0.02,0.00,19.92,25.85,29.18,14.77,44.88,1016.62,2046.76,3602.47,3151.08,3579.00,600.04,602.37,6.68,0000 0000 0000 0000 000000
2016-07-14 05:58:17,-0.03,0.02,0.00,19.97,25.86,29.24,14.74,44.87,1016.61,2046.33,3602.02,3151.00,3578.95,600.28,602.46,6.73,0000 0000 0000 0000 000000
2016-07-14 06:03:18,-0.01,0.02,0.00,19.97,25.87,29.23,14.76,44.85,1016.62,2046.13,3602.00,3150.99,3578.47,600.29,602.35,6.78,0000 0000 0000 0000 000000
2016-07-14 06:08:20,0.01,0.02,0.00,19.98,25.89,29.23,14.78,44.87,1016.62,2046.04,3601.95,3150.93,3578.03,600.40,602.64,6.83,0000 0000 0000 0000 000000
2016-07-14 06:13:21,0.02,0.02,0.00,20.03,25.90,29.26,14.79,44.83,1016.62,2046.02,3601.42,3150.68,3578.00,600.07,602.11,6.88,0000 0000 0000 0000 000000
2016-07-14 06:18:22,0.01,0.02,0.00,20.02,25.92,29.24,14.77,44.83,1016.62,2046.01,3601.03,3150.08,3577.98,599.97,602.11,6.93,0000 0000 0000 0000 000000
2016-07-14 06:23:23,0.00,0.02,0.00,20.00,25.92,29.34,14.80,44.83,1016.62,2046.00,3601.00,3150.01,3577.71,600.59,602.73,6.98,0000 0000 0000 0000 000000
2016-07-14 06:28:24,0.01,0.02,0.00,20.03,25.94,29.28,14.67,44.69,1016.63,2046.00,3600.74,3149.99,3577.09,599.82,601.87,7.03,0000 0000 0000 0000 000000
2016-07-14 06:33:25,0.00,0.02,0.00,20.05,25.95,29.30,14.76,44.79,1016.63,2046.00,3600.11,3149.97,3577.00,599.99,602.04,7.08,0000 0000 0000 0000 000000
2016-07-14 06:38:27,0.01,0.02,0.00,20.07,25.96,29.31,14.72,44.72,1016.65,2046.00,3600.00,3149.67,3576.97,600.05,602.12,7.13,0000 0000 0000 0000 000000
2016-07-14 06:43:28,0.02,0.03,0.00,20.10,25.97,29.34,14.66,44.75,1016.65,2046.00,3599.88,3149.09,3576.51,599.87,601.81,7.18,0000 0000 0000 0000 000000
2016-07-14 06:48:29,0.01,0.03,0.00,20.09,25.98,29.29,14.75,44.73,1016.66,2045.98,3599.26,3149.00,3576.04,600.16,602.15,7.23,0000 0000 0000 0000 000000
2016-07-14 06:53:31,0.00,0.03,0.00,20.09,26.00,29.40,14.69,44.74,1016.67,2045.99,3599.00,3149.00,3576.00,599.80,601.78,7.28,0000 0000 0000 0000 000000
2016-07-14 06:58:32,-0.00,0.03,0.00,20.12,26.00,29.39,14.73,44.81,1016.68,2045.98,3599.00,3148.97,3575.98,599.96,601.90,7.33,0000 0000 0000 0000 000000
2016-07-14 07:03:33,0.01,0.03,0.00,20.14,26.02,29.40,14.71,44.78,1016.75,2045.97,3598.82,3148.91,3575.90,599.92,601.98,7.38,0000 0000 0000 0000 000000
2016-07-14 07:08:35,0.02,0.03,0.00,20.15,26.02,29.37,14.68,44.80,1016.86,2045.97,3598.23,3148.53,3575.35,600.06,602.08,7.43,0000 0000 0000 0000 000000
2016-07-14 07:13:36,0.01,0.03,0.00,20.15,26.03,29.43,14.73,44.77,1016.99,2045.97,3598.01,3148.13,3575.02,600.11,602.16,7.48,0000 0000 0000 0000 000000
2016-07-14 07:18:37,-0.01,0.03,0.00,20.20,26.05,29.36,14.71,44.78,1017.01,2045.81,3597.99,3148.00,3575.00,599.77,601.67,7.53,0000 0000 0000 0000 000000
2016-07-14 07:23:39,0.01,0.03,0.00,20.18,26.05,29.38,14.75,44.92,1017.02,2045.81,3597.75,3148.00,3574.95,599.96,602.06,7.59,0000 0000 0000 0000 000000
2016-07-14 07:28:40,0.01,0.03,0.00,20.15,26.06,29.44,14.72,44.71,1017.07,2045.80,3597.13,3148.00,3574.75,600.03,602.19,7.64,0000 0000 0000 0000 000000
2016-07-14 07:33:41,0.00,0.03,0.00,20.17,26.07,29.53,14.63,44.77,1017.09,2045.82,3597.02,3147.97,3574.25,599.81,601.96,7.69,0000 0000 0000 0000 000000
2016-07-14 07:38:42,-0.00,0.03,0.00,20.22,26.07,29.53,14.67,44.82,1017.10,2045.75,3597.00,3147.88,3574.04,599.72,601.70,7.74,0000 0000 0000 0000 000000
2016-07-14 07:43:44,-0.00,0.03,0.00,20.19,26.09,29.50,14.69,44.77,1017.10,2045.50,3596.98,3147.46,3574.00,599.70,601.71,7.79,0000 0000 0000 0000 000000
2016-07-14 07:48:45,0.00,0.03,0.00,20.19,26.10,29.48,14.67,44.82,1017.10,2045.55,3596.92,3147.27,3574.00,599.90,602.03,7.84,0000 0000 0000 0000 000000
2016-07-14 07:53:46,-0.00,0.03,0.00,20.23,26.10,29.51,14.70,44.76,1017.10,2045.33,3596.23,3147.02,3573.98,599.52,601.51,7.89,0000 0000 0000 0000 000000
2016-07-14 07:58:47,0.02,0.03,0.00,20.21,26.12,29.54,14.69,44.83,1017.11,2045.50,3596.00,3147.00,3573.75,599.95,601.89,7.94,0000 0000 0000 0000 000000
2016-07-14 08:03:48,-0.01,0.03,0.00,20.17,26.12,29.64,14.70,44.77,1017.12,2045.45,3596.00,3147.00,3573.37,600.15,602.23,7.99,0000 0000 0000 0000 000000
2016-07-14 08:08:49,0.01,0.03,0.00,20.21,26.12,29.65,14.73,44.78,1017.12,2045.50,3595.98,3147.00,3573.19,600.15,602.15,8.04,0000 0000 0000 0000 000000
2016-07-14 08:13:51,-0.02,0.03,0.00,20.21,26.12,29.64,14.70,44.73,1017.11,2045.23,3595.80,3146.99,3573.02,599.64,601.70,8.09,0000 0000 0000 0000 000000
2016-07-14 08:18:52,0.02,0.03,0.00,20.27,26.14,29.66,14.76,44.75,1017.13,2045.24,3595.46,3146.97,3573.00,599.99,601.87,8.14,0000 0000 0000 0000 000000
2016-07-14 08:23:53,-0.02,0.03,0.00,20.26,26.15,29.54,14.78,44.71,1017.14,2045.14,3595.32,3146.95,3573.00,600.27,602.19,8.19,0000 0000 0000 0000 000000
2016-07-14 08:28:54,0.01,0.03,0.00,20.23,26.15,29.47,14.70,44.73,1017.31,2045.13,3595.12,3146.84,3573.00,600.03,602.00,8.24,0000 0000 0000 0000 000000
2016-07-14 08:33:55,0.01,0.03,0.00,20.26,26.15,29.52,14.66,44.69,1017.48,2045.05,3595.01,3146.41,3572.96,599.62,601.79,8.29,0000 0000 0000 0000 000000
2016-07-14 08:38:57,0.01,0.03,0.00,20.26,26.15,29.54,14.73,44.76,1017.41,2045.03,3595.00,3146.11,3572.88,599.80,601.95,8.34,0000 0000 0000 0000 000000
2016-07-14 08:43:58,-0.00,0.03,0.00,20.26,26.17,29.58,14.69,44.81,1017.37,2045.02,3595.00,3146.07,3572.75,599.74,601.77,8.39,0000 0000 0000 0000 000000
2016-07-14 08:48:59,0.00,0.03,0.00,20.29,26.17,29.62,14.72,44.77,1017.48,2045.02,3595.00,3146.05,3572.54,600.11,602.04,8.44,0000 0000 0000 0000 000000
2016-07-14 08:54:01,0.00,0.03,0.00,20.30,26.17,29.72,14.74,44.87,1017.54,2045.00,3595.00,3146.02,3572.17,600.02,602.09,8.49,0000 0000 0000 0000 000000
2016-07-14 08:59:02,0.00,0.03,0.00,20.31,26.17,29.73,14.68,44.67,1017.56,2045.00,3594.98,3146.01,3572.02,599.58,601.68,8.54,0000 0000 0000 0000 000000
2016-07-14 09:04:03,0.00,0.03,0.00,20.34,26.18,29.76,14.75,44.70,1017.59,2045.00,3594.97,3146.00,3572.00,600.07,602.08,8.59,0000 0000 0000 0000 000000
2016-07-14 09:09:05,0.00,0.03,0.00,20.30,26.19,29.76,14.80,44.68,1017.57,2045.00,3594.84,3146.00,3572.00,600.21,602.21,8.64,0000 0000 0000 0000 000000
2016-07-14 09:14:06,0.01,0.03,0.00,20.30,26.20,29.72,14.74,44.68,1017.58,2045.00,3594.29,3145.99,3572.00,600.41,602.47,8.69,0000 0000 0000 0000 000000
2016-07-14 09:19:07,0.00,0.03,0.00,20.32,26.20,29.75,14.68,44.62,1017.59,2045.00,3594.08,3145.98,3572.00,599.55,601.49,8.74,0000 0000 0000 0000 000000
2016-07-14 09:24:09,0.00,0.03,0.00,20.32,26.20,29.73,14.69,44.63,1017.59,2045.00,3594.04,3145.99,3571.99,599.80,601.83,8.79,0000 0000 0000 0000 000000
2016-07-14 09:29:10,0.00,0.03,0.00,20.33,26.20,29.68,14.71,44.52,1017.59,2045.00,3594.06,3145.99,3571.99,600.01,602.11,8.84,0000 0000 0000 0000 000000
2016-07-14 09:34:11,0.00,0.03,0.00,20.29,26.20,29.72,14.72,44.72,1017.59,2045.00,3594.07,3145.98,3571.99,600.10,602.22,8.89,0000 0000 0000 0000 000000
2016-07-14 09:39:12,0.00,0.03,0.00,20.32,26.21,29.76,14.76,44.72,1017.59,2045.00,3594.02,3145.98,3571.97,600.34,602.31,8.94,0000 0000 0000 0000 000000
2016-07-14 09:44:13,0.00,0.03,0.00,20.34,26.22,29.69,14.69,44.73,1017.59,2045.00,3594.00,3145.96,3571.94,600.23,602.27,8.99,0000 0000 0000 0000 000000
2016-07-14 09:49:15,0.00,0.03,0.00,20.36,26.22,29.74,14.69,44.73,1017.59,2045.00,3594.01,3145.94,3571.85,599.76,601.66,9.04,0000 0000 0000 0000 000000
2016-07-14 09:54:16,0.00,0.03,0.00,20.38,26.22,29.71,14.73,44.63,1017.59,2045.00,3594.00,3145.94,3571.70,599.97,601.92,9.09,0000 0000 0000 0000 000000
2016-07-14 09:59:17,0.00,0.03,0.00,20.35,26.22,29.78,14.76,44.63,1017.59,2045.00,3594.00,3145.91,3571.65,600.24,602.23,9.14,0000 0000 0000 0000 000000
2016-07-14 10:04:18,0.01,0.03,0.00,20.35,26.22,29.82,14.73,44.67,1017.59,2045.00,3594.00,3145.76,3571.30,599.66,601.52,9.19,0000 0000 0000 0000 000000
2016-07-14 10:09:20,0.00,0.03,0.00,20.31,26.22,29.82,14.69,44.73,1017.59,2045.00,3593.99,3145.57,3571.06,599.67,601.68,9.24,0000 0000 0000 0000 000000
2016-07-14 10:14:21,0.01,0.03,0.00,20.30,26.23,29.83,14.71,44.63,1017.59,2045.00,3593.97,3145.27,3571.01,599.65,601.75,9.29,0000 0000 0000 0000 000000
2016-07-14 10:19:22,0.00,0.03,0.00,20.27,26.24,29.81,14.71,44.73,1017.59,2044.99,3593.86,3145.08,3571.00,599.56,601.66,9.34,0000 0000 0000 0000 000000
2016-07-14 10:24:23,0.00,0.03,0.00,20.26,26.24,29.81,14.74,44.73,1017.59,2044.99,3593.78,3145.05,3571.00,599.91,602.24,9.39,0000 0000 0000 0000 000000
2016-07-14 10:29:25,0.00,0.04,0.00,20.25,26.25,29.80,14.69,44.61,1017.59,2044.99,3593.56,3145.04,3571.00,599.84,601.92,9.44,0000 0000 0000 0000 000000
2016-07-14 10:34:26,0.01,0.04,0.00,20.26,26.25,29.79,14.79,44.72,1017.59,2044.99,3593.22,3145.01,3570.98,599.86,602.04,9.49,0000 0000 0000 0000 000000
2016-07-14 10:39:27,0.00,0.04,0.00,20.29,26.25,29.87,14.76,44.59,1017.59,2044.99,3593.01,3145.00,3570.97,600.23,602.35,9.54,0000 0000 0000 0000 000000
2016-07-14 10:44:28,0.00,0.04,0.00,20.29,26.25,29.84,14.83,44.61,1017.59,2044.99,3593.00,3145.00,3570.89,599.91,601.95,9.59,0000 0000 0000 0000 000000
2016-07-14 10:49:29,0.00,0.04,0.00,20.34,26.25,29.86,14.76,44.67,1017.59,2044.99,3593.00,3145.00,3570.75,600.22,602.16,9.64,0000 0000 0000 0000 000000
2016-07-14 10:54:31,0.01,0.04,0.00,20.31,26.25,29.76,14.70,44.58,1017.59,2044.99,3592.99,3144.99,3570.22,599.87,601.95,9.69,0000 0000 0000 0000 000000
2016-07-14 10:59:32,0.00,0.04,0.00,20.25,26.25,29.79,14.86,44.63,1017.59,2044.99,3592.96,3144.98,3570.05,600.23,602.37,9.74,0000 0000 0000 0000 000000
2016-07-14 11:04:33,0.00,0.04,0.00,20.28,26.25,29.82,14.79,44.62,1017.59,2044.98,3592.85,3144.94,3570.00,600.12,602.26,9.79,0000 0000 0000 0000 000000
2016-07-14 11:09:34,0.00,0.04,0.00,20.31,26.25,29.80,14.78,44.65,1017.59,2044.97,3592.50,3144.89,3570.00,600.05,602.11,9.84,0000 0000 0000 0000 000000
2016-07-14 11:14:36,0.01,0.04,0.00,20.25,26.25,29.75,14.75,44.47,1017.59,2044.99,3592.09,3144.59,3570.00,600.26,602.46,9.89,0000 0000 0000 0000 000000
2016-07-14 11:19:37,-0.00,0.04,0.00,20.27,26.25,29.76,14.80,44.57,1017.59,2044.99,3592.02,3144.38,3569.98,600.19,602.34,9.94,0000 0000 0000 0000 000000
2016-07-14 11:24:38,0.00,0.04,0.00,20.28,26.25,29.82,14.80,44.58,1017.60,2044.99,3592.00,3144.11,3569.98,600.24,602.40,10.00,0000 0000 0000 0000 000000
2016-07-14 11:29:40,0.00,0.04,0.00,20.31,26.25,29.88,14.72,44.53,1017.60,2044.99,3592.00,3144.13,3569.88,599.79,601.82,10.05,0000 0000 0000 0000 000000
2016-07-14 11:34:41,0.00,0.04,0.00,20.27,26.25,29.86,14.74,44.64,1017.61,2044.99,3591.99,3144.02,3569.71,599.93,602.10,10.10,0000 0000 0000 0000 000000
2016-07-14 11:39:42,0.00,0.04,0.00,20.25,26.25,29.83,14.74,44.63,1017.68,2044.99,3591.93,3144.00,3569.50,599.85,602.16,10.15,0000 0000 0000 0000 000000
2016-07-14 11:44:43,0.00,0.04,0.00,20.27,26.25,29.87,14.78,44.77,1017.74,2044.99,3591.92,3144.00,3569.20,599.99,602.23,10.20,0000 0000 0000 0000 000000
2016-07-14 11:49:44,-0.00,0.04,0.00,20.31,26.25,29.86,14.83,44.68,1017.85,2044.99,3591.97,3144.00,3569.24,600.42,602.58,10.25,0000 0000 0000 0000 000000
2016-07-14 11:54:45,0.00,0.04,0.00,20.28,26.25,29.82,14.76,44.58,1018.01,2044.99,3591.93,3144.00,3569.19,599.87,602.25,10.30,0000 0000 0000 0000 000000
2016-07-14 11:59:47,0.00,0.04,0.00,20.21,26.24,29.80,14.73,44.65,1018.07,2044.99,3591.89,3144.00,3569.16,599.74,602.29,10.35,0000 0000 0000 0000 000000
2016-07-14 12:04:48,-0.00,0.04,0.00,20.18,26.23,29.85,14.80,44.67,1018.08,2044.99,3591.85,3144.00,3569.13,600.13,602.84,10.40,0000 0000 0000 0000 000000
2016-07-14 12:09:49,0.01,0.04,0.00,20.21,26.22,29.88,14.79,44.62,1018.08,2044.99,3591.58,3144.00,3569.12,599.96,602.76,10.45,0000 0000 0000 0000 000000
2016-07-14 12:14:50,-0.00,0.04,0.00,20.20,26.22,29.88,14.76,44.42,1018.08,2044.99,3591.57,3144.00,3569.13,600.03,602.65,10.50,0000 0000 0000 0000 000000
2016-07-14 12:19:52,0.00,0.04,0.00,20.20,26.22,29.82,14.81,44.67,1018.08,2044.99,3591.56,3144.00,3569.09,600.05,602.65,10.55,0000 0000 0000 0000 000000
2016-07-14 12:24:53,-0.01,0.04,0.00,20.23,26.21,29.87,14.83,44.83,1018.09,2044.99,3591.85,3144.01,3569.25,600.31,602.81,10.60,0000 0000 0000 0000 000000
2016-07-14 12:29:54,-0.01,0.04,0.00,20.19,26.20,29.84,14.71,44.59,1018.09,2044.99,3591.96,3144.03,3569.63,599.97,602.81,10.65,0000 0000 0000 0000 000000
2016-07-14 12:34:55,0.00,0.04,0.00,20.12,26.20,29.78,14.76,44.64,1018.10,2044.99,3591.98,3144.04,3569.81,600.04,602.80,10.70,0000 0000 0000 0000 000000
2016-07-14 12:39:57,-0.00,0.04,0.00,20.18,26.19,29.80,14.75,44.66,1018.10,2044.99,3591.98,3144.05,3569.84,600.20,602.81,10.75,0000 0000 0000 0000 000000
2016-07-14 12:44:58,0.00,0.04,0.00,20.16,26.17,29.80,14.77,44.63,1018.18,2044.99,3591.98,3144.10,3569.94,599.79,602.54,10.80,0000 0000 0000 0000 000000
2016-07-14 12:49:59,-0.00,0.04,0.00,20.18,26.17,29.79,14.75,44.67,1018.17,2044.99,3591.98,3144.16,3569.92,600.07,602.85,10.85,0000 0000 0000 0000 000000
2016-07-14 12:55:00,-0.01,0.04,0.00,20.18,26.17,29.81,14.82,44.58,1018.23,2044.99,3591.99,3144.49,3569.97,600.39,603.18,10.90,0000 0000 0000 0000 000000
2016-07-14 13:00:02,-0.00,0.04,0.00,20.12,26.16,29.83,14.79,44.58,1018.34,2045.00,3591.99,3144.77,3569.99,600.09,603.09,10.95,0000 0000 0000 0000 000000